Flag for South Africa Weather past 2 weeks in Vereeniging, South Africa

Now
72 °F

Mild.


Feels Like: 76 °F
Forecast: 60 / 85 °F
Wind: N/A

Location: Vereeniging

Current Time: Jan 26, 2015 at 8:33:04 PM

Latest Report: Jan 26, 2015 at 8:00 PM


Visibility: N/A

Pressure: 30.18 "Hg

Humidity: 57%

Dew point: 55 °F

Location of VereenigingLocation

Historic Weather in Vereeniging — Graph

°F

Vereeniging temperature yesterday

Maximum temperature yesterday: 86 °F (at 2:00 PM)
Minimum temperature yesterday: 61 °F (at 6:00 AM)
Average temperature yesterday: 72 °F

Past Weeks' High & Low Weather Summary

 TemperatureHumidityPressure
High88 °F (Jan 23, 3:00 PM)88% (Jan 12, 6:00 AM)30.39 "Hg (Jan 12, 6:00 AM)
Low55 °F (Jan 20, 4:00 AM)21% (Jan 23, 6:00 PM)30.01 "Hg (Jan 25, 5:00 PM)
Average71 °F55%30.19 "Hg
* Reported Jan 11 5:00 PM — Jan 26 5:00 PM, Vereeniging, Weather by CustomWeather, © 2014

Note: Actual official high and low records may vary slightly from our data, if they occured in-between our weather recording intervals... More about our weather records

Advertising

Vereeniging weather history for previous 24 hours

 ConditionsComfort  
Time TempWeatherWind HumidityBarometerVisibility
5:00 PM
Jan 26
73 °FMild.N/A50%30.12 "HgN/A
4:00 PM81 °FPleasantly warm.N/A37%30.12 "HgN/A
3:00 PM84 °FPleasantly warm.N/A31%30.12 "HgN/A
2:00 PM81 °FPleasantly warm.N/A34%30.15 "HgN/A
1:00 PM81 °FPleasantly warm.N/A39%30.18 "HgN/A
12:00 PM79 °FPleasantly warm.N/A39%30.18 "HgN/A
11:00 AM79 °FWarm.N/A42%30.18 "HgN/A
10:00 AM75 °FMild.N/A44%30.18 "HgN/A
9:00 AM73 °FMild.N/A53%30.18 "HgN/A
8:00 AM70 °FMild.N/A60%30.18 "HgN/A
7:00 AM66 °FMild.N/A73%30.18 "HgN/A
6:00 AM59 °FCool.N/A88%30.18 "HgN/A
5:00 AM59 °FCool.N/A88%30.15 "HgN/A
4:00 AM61 °FCool.N/A83%30.15 "HgN/A
3:00 AM61 °FCool.N/A83%30.15 "HgN/A
1:00 AM61 °FCool.N/A83%30.18 "HgN/A
12:00 AM61 °FCool.N/A88%30.18 "HgN/A
11:00 PM
Jan 25
63 °FMild.N/A83%30.24 "HgN/A
10:00 PM63 °FMild.N/A83%30.24 "HgN/A
9:00 PM68 °FMild.N/A60%30.21 "HgN/A
8:00 PM66 °FMild.N/A64%30.12 "HgN/A
Weather by CustomWeather, © 2014

See weather overviewHow to use our weather pages